Theta_e
300 299 299 300 302 305 310 309 309 307 306 304 302 302 305 301 300 301 304 303 303 303 299 299 299 299 299 298 297 294 296 296 297 297 297 296 297 297 297 296 296 298 298 298 299
300 299 299 299 301 302 308 309 308 303 304 301 300 303 303 302 302 302 302 303 303 302 299 299 298 298 297 298 297 296 296 296 296 297 297 298 298 297 297 297 297 296 296 298 297
300 300 300 300 299 301 307 305 304 303 301 300 300 303 304 303 300 301 299 302 302 299 298 298 298 298 298 298 298 298 297 297 298 297 298 298 298 297 297 297 296 296 293 294 294
300 300 300 300 299 299 305 302 300 301 301 301 300 304 303 306 298 301 298 299 299 298 298 298 297 298 298 298 298 297 297 298 298 298 298 298 297 298 297 295 293 291 291 291 291
301 300 300 300 299 300 300 300 299 300 300 301 300 302 303 297 299 298 298 298 298 298 297 297 297 298 298 298 298 298 297 298 298 297 297 297 298 297 296 292 290 290 290 290 290
301 301 300 300 300 299 299 299 300 300 299 301 303 304 301 298 298 298 299 299 298 298 297 297 297 297 297 298 298 298 298 297 297 298 298 297 296 296 294 290 290 289 288 289 289
301 301 300 300 300 300 299 298 300 299 299 301 303 300 296 298 299 299 299 299 299 299 298 299 299 298 298 297 298 298 299 298 298 297 296 296 297 296 290 290 289 289 289 289 289
302 301 301 300 300 299 299 298 300 299 300 301 302 301 297 298 299 299 298 299 299 299 299 299 300 298 299 297 295 297 298 295 296 296 296 295 295 292 288 288 287 287 287 288 288
303 302 301 300 300 300 299 299 300 299 299 301 300 299 297 298 298 298 298 298 298 299 299 300 300 297 295 295 294 295 296 296 296 295 295 295 295 293 289 288 287 287 286 287 287
305 303 301 300 300 300 298 301 300 300 301 300 298 296 297 297 298 298 298 298 297 297 297 298 294 295 295 296 294 297 296 296 295 295 296 296 294 292 291 288 287 287 286 286 286
308 305 302 300 300 300 297 301 296 300 297 297 297 296 296 297 298 298 298 297 297 295 297 296 296 297 296 296 297 296 297 296 294 294 295 295 293 292 290 288 287 287 286 285 285
310 307 303 300 300 299 296 298 299 299 297 297 297 297 297 297 297 297 298 297 297 297 296 296 298 297 297 297 298 297 297 295 294 294 294 294 292 289 291 289 287 286 285 284 284
310 309 304 300 300 299 296 298 299 300 298 298 297 297 296 297 297 297 297 297 297 298 297 297 298 297 297 297 298 297 296 296 294 293 294 294 290 290 290 290 288 286 284 283 283
311 310 305 300 299 299 296 298 300 301 299 299 297 297 297 296 298 297 296 297 296 297 297 297 297 297 297 298 295 291 294 294 294 292 294 291 290 293 289 289 287 284 283 282 282
311 310 305 301 299 299 297 299 300 300 304 298 297 296 297 298 296 297 295 296 297 297 294 297 297 298 292 298 295 293 294 293 293 293 290 297 290 289 287 288 285 282 282 281 282
311 310 306 301 300 300 297 299 301 305 307 299 297 297 298 297 297 296 296 294 295 296 296 297 295 295 296 295 294 292 290 293 293 294 293 291 293 291 283 282 282 280 280 280 281
311 310 306 302 300 298 298 300 306 307 299 298 297 297 298 298 298 297 296 295 296 293 293 295 297 295 293 293 293 289 287 287 291 288 292 293 294 289 281 282 278 277 277 280 280
312 309 305 301 300 296 301 304 304 303 298 296 297 298 300 297 297 297 296 296 294 293 288 290 295 294 294 289 289 292 286 288 292 294 293 293 293 291 280 278 273 276 276 280 279
311 307 302 300 298 297 302 303 305 301 297 296 298 299 298 297 297 297 297 296 295 291 291 285 291 294 292 291 291 293 293 292 287 289 290 292 293 286 285 284 277 274 279 279 279
309 302 301 299 296 300 302 303 299 296 296 298 301 298 296 294 296 297 297 296 296 295 290 288 292 295 294 291 291 293 291 290 289 289 290 294 294 292 286 280 278 275 278 279 278
305 302 298 296 298 302 302 301 297 294 296 298 298 299 297 295 296 295 298 295 295 293 292 289 290 294 292 285 287 290 292 291 290 291 290 293 292 283 280 279 277 277 278 278 278
300 307 295 295 300 298 301 298 295 295 295 296 296 297 295 294 294 297 299 297 293 293 296 293 287 290 288 282 287 289 284 287 287 290 290 292 290 284 279 274 279 279 278 278 278
299 298 295 297 305 301 297 296 295 294 295 296 297 296 290 293 294 292 297 294 294 294 293 292 293 291 294 291 291 286 288 289 286 287 287 289 292 281 280 282 279 278 278 277 278
301 304 298 297 298 299 298 300 298 295 295 296 296 294 290 290 290 290 295 295 294 295 296 294 289 289 294 292 280 287 286 288 288 281 284 286 288 287 282 277 276 277 277 277 277
300 306 298 301 300 299 300 300 299 301 295 295 296 296 294 292 288 290 293 294 295 297 294 291 289 286 282 276 278 283 288 285 285 280 287 285 282 286 280 274 271 273 276 276 275
300 300 296 298 298 299 302 304 301 298 296 297 297 294 292 293 295 294 293 295 296 294 294 289 290 287 290 278 275 287 283 282 283 277 279 273 280 274 272 274 273 272 272 273 274
297 296 300 300 300 302 303 303 300 298 298 295 295 295 293 293 291 291 291 292 293 290 292 288 289 286 291 284 287 288 285 280 278 274 282 286 284 268 274 273 270 272 272 273 272
Wind_Speed
13 15 15 16 17 18 19 18 18 14 10 8 5 6 7 12 12 15 11 9 11 14 15 15 13 11 4 3 3 3 3 2 4 3 4 4 5 3 3 4 5 4 4 6 12
13 14 16 17 18 19 20 18 17 11 9 8 5 7 9 7 5 14 7 11 13 15 12 9 7 7 3 3 3 4 3 5 3 1 4 4 4 4 4 4 4 7 6 14 20
13 15 16 18 19 20 21 18 14 9 8 6 5 7 5 3 1 4 13 14 14 14 6 2 3 2 4 3 4 1 4 1 3 4 1 4 4 4 5 3 5 12 13 11 14
14 14 16 18 20 21 21 17 12 7 7 5 4 5 3 1 2 6 14 19 13 6 2 4 4 4 3 3 3 3 4 2 5 3 5 7 3 3 4 5 6 8 11 10 10
14 15 16 17 19 21 20 16 11 6 5 4 2 2 3 5 2 10 17 13 6 3 6 3 6 3 3 3 4 4 3 4 9 10 6 6 4 4 2 9 6 7 10 12 13
14 16 17 17 19 21 19 16 11 5 4 2 3 3 2 4 3 10 16 9 7 7 7 7 3 3 2 2 1 3 5 9 7 5 3 7 5 1 5 7 9 12 11 11 11
14 17 18 19 19 21 18 16 12 5 1 1 3 3 5 4 1 11 14 7 6 6 3 8 5 3 1 3 2 4 5 6 3 3 5 10 1 6 7 7 9 12 12 11 11
15 17 18 19 20 23 17 17 8 3 2 1 2 3 2 1 3 12 14 3 4 7 8 5 6 3 2 4 6 5 1 5 4 4 2 6 6 3 7 9 10 13 12 14 13
16 17 19 20 22 20 18 12 2 1 2 1 1 3 2 1 3 9 11 3 2 4 6 4 4 3 4 4 4 4 7 7 7 2 3 4 8 3 5 10 10 11 12 14 15
16 18 19 21 22 18 17 3 1 1 1 2 3 4 2 1 4 7 6 5 4 2 3 5 4 3 3 6 3 12 7 5 10 4 1 3 9 4 6 9 10 11 13 13 15
16 18 20 20 22 16 16 2 4 2 6 1 3 3 2 3 1 8 7 1 3 7 3 4 4 2 4 3 7 7 9 13 10 6 4 3 3 4 5 6 12 13 14 15 16
16 17 19 20 18 12 8 5 2 1 5 2 1 1 2 2 3 5 9 3 4 3 3 4 2 2 5 6 7 10 13 8 7 4 4 2 5 3 3 4 9 12 14 16 17
15 16 18 20 11 8 8 4 2 1 1 1 1 2 2 3 3 4 5 2 3 3 3 3 1 4 5 6 8 8 4 4 8 11 3 3 6 2 2 3 10 10 11 12 14
13 14 16 19 3 9 3 7 2 2 4 2 2 1 2 2 2 2 4 1 3 2 1 4 3 4 9 5 4 5 4 10 16 3 3 2 4 4 1 4 12 14 14 14 16
13 12 13 12 7 3 6 3 1 1 4 1 1 3 1 2 1 2 6 3 3 1 4 1 4 5 3 5 1 8 13 14 7 3 3 3 2 5 3 5 15 15 15 15 15
13 10 9 7 6 3 4 2 2 5 5 1 2 1 1 4 4 5 3 6 1 3 1 4 2 4 4 7 1 10 5 1 3 1 2 3 3 4 2 4 11 14 14 15 16
13 9 7 7 3 4 3 3 4 3 2 2 1 2 2 3 2 5 4 6 4 5 6 5 2 1 2 6 1 9 6 4 5 4 4 1 2 6 4 4 4 12 15 13 13
14 9 5 3 1 1 4 4 1 2 4 1 2 1 1 2 2 3 3 2 2 4 3 3 7 2 4 3 3 5 4 3 4 4 6 4 5 4 5 5 4 7 10 12 14
16 7 2 2 3 3 4 2 6 5 3 3 1 3 2 1 2 1 2 3 3 4 4 3 6 1 1 1 2 3 5 2 1 3 3 3 1 4 4 8 7 8 12 12 12
12 6 3 6 6 5 3 6 3 1 2 3 4 2 2 3 1 1 2 3 4 2 3 4 4 3 2 1 3 4 1 2 1 5 5 5 4 3 6 12 12 12 11 12 12
8 3 2 6 8 3 3 6 3 1 3 3 3 3 3 3 3 2 3 2 3 4 4 4 3 4 2 1 4 2 2 2 1 1 2 4 6 4 3 7 8 8 10 9 11
4 2 2 8 3 1 3 3 2 2 2 2 2 2 5 3 3 3 3 2 5 6 5 4 4 5 6 4 3 2 5 3 3 4 2 2 6 3 5 6 4 8 10 9 9
2 2 1 1 3 3 3 3 2 2 2 3 3 2 2 4 1 3 2 2 5 4 5 5 1 4 7 2 0 2 3 3 3 2 3 1 6 0 2 4 6 5 6 7 9
3 2 1 0 1 3 1 3 3 2 1 2 2 3 3 0 1 2 2 3 5 2 7 5 3 6 5 7 1 2 3 4 3 2 2 6 11 10 7 6 7 8 6 4 6
1 1 1 3 4 4 1 1 1 2 2 3 2 6 6 3 2 4 2 2 1 4 3 3 3 3 5 5 1 4 5 4 6 5 4 4 5 16 9 7 5 5 8 6 6
3 2 1 1 2 6 6 4 9 4 5 4 5 1 6 5 6 6 6 5 4 2 3 1 2 1 4 2 3 5 5 6 4 3 7 3 8 4 5 4 7 9 9 10 7
3 3 0 4 3 4 4 4 4 5 5 1 5 3 4 8 4 1 3 5 5 7 4 4 3 2 5 2 5 6 7 5 2 3 5 2 5 3 5 6 3 5 6 6 8
Wind_Direction
9 3 3 0 358 356 351 353 354 1 16 26 37 109 114 114 66 54 46 7 359 344 343 347 9 16 58 65 52 121 62 244 253 202 261 352 359 296 273 260 332 280 296 251 309
4 3 357 356 355 357 351 353 356 16 26 37 50 122 140 137 23 51 11 355 347 343 345 3 344 356 54 34 22 81 126 230 223 306 271 286 273 302 305 284 271 286 266 319 334
359 359 354 354 356 356 349 352 360 14 22 35 60 123 150 221 46 342 352 341 334 338 330 310 308 37 60 19 9 121 207 221 270 256 309 268 259 235 290 290 259 317 328 350 13
352 355 354 354 352 354 348 351 1 6 15 17 77 120 84 148 1 336 347 335 331 353 356 349 29 55 71 45 1 347 282 229 273 268 308 284 291 281 245 325 337 6 355 350 6
348 349 350 354 350 350 348 349 352 355 7 12 67 108 107 51 32 352 339 350 18 64 43 46 50 63 55 323 343 192 265 305 286 285 259 274 245 234 351 330 28 5 11 353 347
345 346 346 352 349 346 346 342 341 339 4 42 64 109 106 78 42 5 1 19 44 59 47 48 79 80 159 255 234 272 303 288 288 285 284 313 281 235 44 347 6 5 360 351 340
345 342 346 346 347 342 341 339 327 314 360 111 50 106 64 153 66 7 4 31 56 68 83 58 64 64 52 307 333 291 313 310 310 322 5 337 21 46 332 358 8 355 351 349 338
343 343 343 344 342 340 339 334 317 275 177 115 57 104 97 59 294 2 1 63 80 67 83 64 55 72 25 311 5 342 337 345 294 24 14 58 284 5 2 15 7 355 346 340 345
340 341 341 343 341 342 341 344 352 210 187 109 129 118 117 48 357 349 357 350 78 67 67 88 67 74 14 27 7 7 295 282 310 69 13 79 292 2 8 24 2 357 348 339 337
340 339 341 341 343 342 344 15 35 203 191 133 85 74 40 323 317 346 5 36 75 84 45 44 45 51 35 45 304 292 304 284 287 293 15 275 274 346 351 29 3 357 344 339 335
339 337 337 339 341 343 348 40 19 303 46 275 148 121 114 337 32 4 354 26 29 53 48 3 39 319 285 225 245 265 264 271 273 275 303 247 254 317 334 28 7 359 346 336 332
333 336 337 336 339 346 357 62 70 268 308 199 131 79 117 83 43 341 7 70 48 61 353 17 262 221 283 277 270 270 279 279 274 244 301 280 256 226 298 53 23 355 343 335 331
329 334 334 337 344 356 34 32 358 64 264 294 177 139 147 114 119 321 23 78 84 82 39 178 337 336 311 293 320 295 245 263 290 314 251 292 294 184 201 181 2 1 343 338 335
323 329 332 339 2 349 21 1 118 41 57 227 215 166 68 99 93 3 17 156 49 85 6 244 344 316 303 280 26 309 242 298 307 294 254 106 287 218 258 283 4 355 351 344 339
308 321 331 349 333 359 335 6 157 344 356 132 150 135 39 79 13 44 37 349 108 77 84 289 5 329 334 287 144 258 307 298 278 191 21 183 43 271 5 320 341 349 347 342 339
286 304 321 336 336 341 351 29 301 42 257 160 82 357 125 23 10 330 36 42 106 102 257 263 281 167 249 309 200 301 329 310 43 86 337 237 144 274 327 294 323 334 339 342 342
265 277 302 325 328 343 19 5 21 156 20 255 197 42 78 355 37 33 36 15 43 35 8 335 229 325 9 315 145 23 359 356 359 7 240 215 208 262 192 255 282 318 325 336 345
238 246 272 293 300 64 37 37 154 237 225 107 91 102 180 356 51 24 91 100 59 73 77 46 323 48 332 152 209 27 90 110 280 325 291 274 235 290 199 216 252 300 299 341 350
213 201 171 134 137 98 74 72 223 210 156 155 110 74 322 296 145 100 57 138 156 157 140 74 278 107 306 307 149 313 45 168 236 226 293 253 262 109 216 324 339 334 346 346 348
175 136 96 143 129 93 72 251 238 69 147 78 174 126 226 265 27 95 200 164 157 148 152 188 318 191 202 314 27 86 47 63 34 350 311 306 290 251 319 327 330 339 345 347 348
132 96 131 149 126 67 175 237 280 290 274 117 198 174 218 233 189 220 192 165 181 140 118 132 117 285 38 358 172 5 48 39 216 185 246 306 282 193 218 296 306 318 341 349 346
99 106 146 156 76 126 225 207 303 223 272 95 128 128 181 175 196 244 218 216 165 153 137 190 150 276 239 258 220 119 151 149 112 298 266 288 276 169 197 252 298 337 346 352 355
92 115 23 315 196 205 293 291 257 222 195 179 188 123 95 191 329 216 224 107 146 158 161 179 191 338 343 1 34 126 184 178 144 57 225 244 280 183 279 330 7 349 350 348 2
124 150 330 214 269 178 176 231 253 307 121 202 129 110 103 128 345 258 229 184 178 153 135 128 139 176 200 231 149 317 201 174 132 121 245 227 290 306 333 348 337 340 351 12 11
107 200 127 196 227 155 86 193 343 270 243 208 231 216 169 186 330 234 216 158 191 173 96 123 197 188 247 238 246 244 221 199 177 206 178 255 260 293 321 322 293 299 342 11 25
143 161 308 135 139 155 178 224 195 187 195 236 227 219 170 190 193 214 161 190 193 170 148 53 258 113 289 351 259 277 235 199 200 202 274 340 287 213 298 316 359 349 352 355 1
147 129 209 149 172 167 208 205 215 161 242 21 206 152 202 235 175 219 104 80 151 152 158 122 123 57 273 327 323 326 217 194 197 212 155 204 243 352 325 336 309 325 346 348 341